[[{"header":{"parameterUnit":"m.s-1","parameterCategory":1,"la1":30.2992,"la2":30.254,"lo1":-89.0895,"lo2":-89.0443,"dy":0.0025,"dx":0.0025,"nx":19,"ny":19,"refTime":"2026-04-05T03:00:00:Z","depth":0,"parameterNumber":2,"parameterNumberName":"U-component_of_WINDS"},"data":[0,0,0,-3.5566,-3.5569,-3.5671,-3.5671,-3.5802,-3.5803,0,0,0,0,0,0,0,0,0,0,0,-3.5536,-3.5537,-3.5566,-3.5569,-3.5671,-3.5671,-3.5802,-3.5803,0,0,0,0,0,0,0,0,0,0,0,-3.5536,-3.5537,-3.5538,-3.5569,-3.5671,-3.5671,-3.5802,-3.5724,0,0,0,0,0,0,0,0,0,0,-3.5625,-3.5597,-3.5536,-3.5538,-3.557,-3.5671,-3.5671,-3.5721,-3.5729,-3.5756,0,-3.578,0,-3.5794,-3.5812,-3.5813,0,0,0,-3.5568,-3.559,-3.5618,-3.5538,-3.5571,-3.5671,-3.5625,-3.5726,-3.5735,-3.5767,-3.5782,-3.5786,-3.5796,-3.5813,-3.5814,-3.597,-3.5971,0,0,-3.5563,-3.5554,-3.5611,-3.5624,-3.5608,-3.5621,-3.5628,-3.5731,-3.5746,-3.5782,-3.579,-3.5798,-3.5814,-3.5815,-3.597,-3.5971,0,0,0,-3.5547,-3.555,-3.5575,-3.5619,-3.5637,-3.5624,-3.5632,-3.5741,-3.5751,-3.5791,-3.58,-3.5815,-3.5816,-3.5969,-3.597,-3.5998,0,0,0,-3.5543,-3.5541,-3.5573,-3.5568,-3.5635,-3.569,-3.564,-3.5743,-3.5755,-3.5799,-3.5815,-3.5818,-3.5968,-3.597,-3.5995,-3.6011,0,0,0,-3.5529,-3.5539,-3.5554,-3.5568,-3.5612,-3.5689,-3.5704,-3.5746,-3.5761,-3.5813,-3.5818,-3.5968,-3.5969,-3.5993,-3.6008,-3.605,0,0,0,-3.5511,-3.5576,-3.5554,-3.563,-3.5611,-3.5706,-3.5703,-3.5775,-3.5823,-3.5815,-3.5968,-3.597,-3.5992,-3.6005,-3.6047,-3.6082,-3.6096,0,0,-3.5587,-3.5584,-3.563,-3.5614,-3.5711,-3.5691,-3.5793,-3.5845,-3.5857,-3.5932,-3.5936,-3.5996,-3.6007,-3.6049,-3.6183,-3.6194,0,0,0,-3.5651,-3.5684,-3.5712,-3.5758,-3.5801,-3.5839,-3.5876,-3.5897,-3.5961,-3.5894,-3.6024,-3.6031,-3.6056,-3.6073,-3.6082,-3.6104,-3.5978,-3.5978,-3.5978,-3.5743,-3.5759,-3.5836,-3.5864,-3.5909,-3.595,-3.5988,-3.6022,-3.6022,-3.6053,-3.6074,-3.6153,-3.6173,-3.618,-3.6203,-3.6096,-3.6096,-3.6096,-3.6096,-3.5855,-3.5903,-3.5907,-3.5982,-3.5998,-3.6062,-3.6105,-3.6104,-3.6166,-3.6138,-3.6161,-3.6127,-3.6192,-3.6213,-3.6098,-3.6098,-3.6098,-3.6097,-3.6097,-3.5915,-3.5941,-3.5966,-3.6037,-3.609,-3.6118,-3.6178,-3.6191,-3.6203,-3.6226,-3.625,-3.6249,-3.6249,-3.6237,-3.6238,-3.6238,-3.6238,-3.6238,-3.6238,-3.5966,-3.5994,-3.6043,-3.6097,-3.6131,-3.6176,-3.6221,-3.6254,-3.6293,-3.6298,-3.6298,-3.6295,-3.6197,-3.617,-3.6243,-3.6242,-3.6241,-3.6241,-3.6241,-3.6069,-3.6049,-3.6125,-3.6158,-3.6225,-3.6277,-3.6296,-3.6362,-3.6392,-3.6421,-3.6416,-3.6342,-3.6338,-3.6331,-3.6309,-3.6413,-3.6413,-3.6413,-3.6413,-3.6118,-3.612,-3.6202,-3.6255,-3.6309,-3.6334,-3.642,-3.6457,-3.6492,-3.6512,-3.65,-3.6473,-3.6465,-3.6467,-3.6456,-3.6436,-3.657,-3.657,-3.657,-3.6182,-3.6191,-3.626,-3.6296,-3.635,-3.6396,-3.6478,-3.654,-3.6575,-3.6577,-3.6527,-3.6521,-3.6478,-3.6463,-3.6459,-3.6442,-3.6405,0,0]},{"header":{"parameterUnit":"m.s-1","parameterCategory":1,"la1":30.2992,"la2":30.254,"lo1":-89.0895,"lo2":-89.0443,"dy":0.0025,"dx":0.0025,"nx":19,"ny":19,"refTime":"2026-04-05T03:00:00:Z","depth":0,"parameterNumber":3,"parameterNumberName":"V-component_of_WINDS"},"data":[0,0,0,4.2199,4.2199,4.2187,4.2187,4.2178,4.2178,0,0,0,0,0,0,0,0,0,0,0,4.2207,4.2207,4.2199,4.2199,4.2187,4.2187,4.2178,4.2178,0,0,0,0,0,0,0,0,0,0,0,4.2207,4.2207,4.2208,4.2199,4.2187,4.2187,4.2178,4.2184,0,0,0,0,0,0,0,0,0,0,4.2195,4.2207,4.2207,4.2208,4.2199,4.2187,4.2187,4.2184,4.2184,4.2186,0,4.219,0,4.2184,4.2178,4.2177,0,0,0,4.2195,4.2208,4.2201,4.2208,4.2199,4.2187,4.2191,4.2184,4.2183,4.2186,4.219,4.219,4.2184,4.2177,4.2177,4.2208,4.2209,0,0,4.2196,4.2207,4.2201,4.22,4.2203,4.2192,4.2191,4.2184,4.2189,4.219,4.2189,4.2184,4.2177,4.2177,4.2208,4.2209,0,0,0,4.22,4.2208,4.2201,4.2201,4.2198,4.2191,4.219,4.2189,4.2186,4.2189,4.2184,4.2177,4.2177,4.2208,4.2208,4.2237,0,0,0,4.2201,4.221,4.2201,4.2208,4.2199,4.2194,4.2196,4.2186,4.2185,4.2184,4.2177,4.2177,4.2207,4.2208,4.2235,4.2248,0,0,0,4.2206,4.2211,4.2211,4.2208,4.2204,4.2193,4.219,4.2186,4.2182,4.2177,4.2177,4.2207,4.2208,4.2234,4.2245,4.2261,0,0,0,4.2215,4.2234,4.2212,4.223,4.2204,4.2212,4.219,4.2194,4.2193,4.2177,4.2207,4.2208,4.2233,4.2244,4.2259,4.2276,4.2283,0,0,4.2245,4.2238,4.2248,4.2228,4.2243,4.2212,4.2231,4.2219,4.2207,4.2209,4.2209,4.2236,4.2245,4.226,4.2323,4.233,0,0,0,4.2262,4.2269,4.2271,4.2272,4.2265,4.226,4.2244,4.224,4.2242,4.221,4.2245,4.225,4.2258,4.2266,4.2271,4.2278,4.2212,4.2212,4.2212,4.2318,4.2305,4.2322,4.2308,4.231,4.2295,4.2295,4.2288,4.2271,4.228,4.228,4.232,4.2329,4.2333,4.2341,4.2287,4.2287,4.2288,4.2288,4.2361,4.237,4.2352,4.2362,4.2348,4.2356,4.2344,4.2333,4.2338,4.2318,4.2325,4.2304,4.2341,4.2347,4.229,4.2289,4.2289,4.2289,4.2289,4.2396,4.2399,4.2395,4.2398,4.2402,4.2387,4.2395,4.2381,4.2368,4.2375,4.2375,4.2374,4.2373,4.2376,4.2376,4.2376,4.2376,4.2377,4.2377,4.2434,4.243,4.2438,4.2436,4.2436,4.2436,4.2424,4.2424,4.2421,4.2411,4.2411,4.2395,4.2347,4.2336,4.2379,4.2378,4.2378,4.2378,4.2378,4.2482,4.247,4.2483,4.2484,4.2481,4.2488,4.2472,4.2474,4.2472,4.2477,4.2461,4.2428,4.2419,4.2414,4.2405,4.2463,4.2463,4.2463,4.2463,4.2512,4.2508,4.252,4.2523,4.2525,4.2513,4.253,4.2522,4.2512,4.251,4.25,4.2487,4.2483,4.2476,4.247,4.2461,4.2533,4.2533,4.2533,4.2541,4.2537,4.2553,4.2545,4.2543,4.2541,4.2557,4.2562,4.2548,4.2535,4.2509,4.2506,4.2484,4.2477,4.2462,4.2454,4.2437,0,0]}]]